Radiation Dose at Monitoring Post of Fukushima Daini Nuclear Power Station
Date,Time,MP-1(microSv/h),MP-2(microSv/h),MP-3(microSv/h),MP-4(microSv/h),MP-5(microSv/h),MP-6(microSv/h),MP-7(microSv/h),Wind Direction,Wind Velocity(m/s),Rain
2017/04/08,00:00,0.383,0.232,0.396,0.369,0.333,0.192,0.164,north,8.4,No
2017/04/08,00:10,0.381,0.232,0.396,0.366,0.332,0.193,0.164,north-northwest,6.5,No
2017/04/08,00:20,0.382,0.231,0.396,0.367,0.332,0.193,0.165,north-northwest,6.5,No
2017/04/08,00:30,0.382,0.232,0.395,0.367,0.331,0.192,0.165,north-northwest,7.2,No
2017/04/08,00:40,0.382,0.231,0.396,0.367,0.333,0.193,0.165,north-northwest,6.9,No
2017/04/08,00:50,0.381,0.231,0.395,0.368,0.333,0.192,0.165,north,7.4,No
2017/04/08,01:00,0.382,0.231,0.397,0.364,0.331,0.193,0.164,north,7.5,No
2017/04/08,01:10,0.383,0.231,0.396,0.367,0.332,0.193,0.165,north,10.1,No
2017/04/08,01:20,0.382,0.231,0.397,0.368,0.334,0.193,0.165,north,10.1,No
2017/04/08,01:30,0.381,0.232,0.397,0.366,0.332,0.194,0.165,north,8.7,No
2017/04/08,01:40,0.383,0.231,0.395,0.367,0.333,0.192,0.164,north,8.8,No
2017/04/08,01:50,0.381,0.231,0.395,0.367,0.331,0.193,0.163,north,8.2,No
2017/04/08,02:00,0.381,0.232,0.396,0.366,0.332,0.193,0.164,north,8.6,No
2017/04/08,02:10,0.382,0.230,0.392,0.368,0.333,0.192,0.165,north,8.3,No
2017/04/08,02:20,0.381,0.231,0.393,0.364,0.330,0.192,0.164,north,8.5,No
2017/04/08,02:30,0.383,0.232,0.396,0.368,0.332,0.193,0.164,north-northwest,6.7,No
2017/04/08,02:40,0.380,0.231,0.393,0.365,0.332,0.193,0.164,north-northwest,7.0,No
2017/04/08,02:50,0.382,0.230,0.394,0.366,0.330,0.192,0.162,north,8.4,No
2017/04/08,03:00,0.381,0.230,0.394,0.366,0.332,0.193,0.163,north,7.1,No
2017/04/08,03:10,0.381,0.232,0.394,0.365,0.330,0.192,0.164,north,7.5,No
2017/04/08,03:20,0.382,0.230,0.395,0.365,0.332,0.192,0.165,north,7.2,No
2017/04/08,03:30,0.381,0.230,0.394,0.366,0.330,0.192,0.163,north,7.3,No
2017/04/08,03:40,0.382,0.231,0.395,0.364,0.330,0.192,0.163,north,7.2,No
2017/04/08,03:50,0.382,0.231,0.396,0.364,0.332,0.193,0.164,north,6.8,No
2017/04/08,04:00,0.380,0.231,0.393,0.366,0.330,0.191,0.163,north,6.2,No
2017/04/08,04:10,0.382,0.231,0.395,0.366,0.331,0.192,0.164,north,4.5,No
2017/04/08,04:20,0.380,0.230,0.394,0.367,0.331,0.192,0.163,north-northeast,2.2,No
2017/04/08,04:30,0.380,0.231,0.395,0.364,0.331,0.191,0.162,north,1.8,No
2017/04/08,04:40,0.383,0.230,0.395,0.368,0.332,0.193,0.163,north,1.7,No
2017/04/08,04:50,0.381,0.231,0.394,0.363,0.331,0.193,0.163,north,4.2,No
2017/04/08,05:00,0.382,0.230,0.396,0.367,0.330,0.192,0.164,north,4.8,No
2017/04/08,05:10,0.380,0.231,0.394,0.365,0.331,0.191,0.164,north,5.1,No
2017/04/08,05:20,0.381,0.230,0.395,0.364,0.329,0.192,0.164,north,5.8,No
2017/04/08,05:30,0.382,0.229,0.396,0.367,0.333,0.193,0.162,north,7.0,No
2017/04/08,05:40,0.381,0.231,0.394,0.365,0.329,0.192,0.163,north,6.2,No
2017/04/08,05:50,0.382,0.232,0.395,0.364,0.331,0.192,0.163,north,5.1,No
2017/04/08,06:00,0.380,0.230,0.395,0.366,0.331,0.192,0.163,north,5.6,No
2017/04/08,06:10,0.382,0.231,0.393,0.365,0.330,0.191,0.164,north,6.7,No
2017/04/08,06:20,0.381,0.230,0.395,0.367,0.333,0.193,0.165,north,6.4,No
2017/04/08,06:30,0.381,0.230,0.394,0.364,0.331,0.193,0.163,north,6.2,No
2017/04/08,06:40,0.382,0.230,0.395,0.367,0.331,0.192,0.164,north,6.7,No
2017/04/08,06:50,0.380,0.230,0.395,0.364,0.331,0.192,0.164,north,6.2,No
2017/04/08,07:00,0.381,0.230,0.393,0.366,0.331,0.193,0.164,north,4.0,No
2017/04/08,07:10,0.383,0.230,0.396,0.368,0.332,0.192,0.164,north,9.2,No
2017/04/08,07:20,0.380,0.231,0.395,0.365,0.330,0.193,0.164,north,7.5,Yes
2017/04/08,07:30,0.382,0.231,0.395,0.366,0.331,0.193,0.163,north,7.6,Yes
2017/04/08,07:40,0.382,0.231,0.396,0.366,0.334,0.193,0.164,north,8.1,Yes
2017/04/08,07:50,0.382,0.232,0.395,0.365,0.332,0.193,0.167,north,7.5,Yes
2017/04/08,08:00,0.382,0.232,0.396,0.368,0.332,0.195,0.165,north,8.1,Yes
2017/04/08,08:10,0.386,0.232,0.398,0.367,0.333,0.196,0.168,north,6.7,Yes
2017/04/08,08:20,0.382,0.233,0.394,0.367,0.332,0.195,0.166,north,7.1,Yes
2017/04/08,08:30,0.384,0.233,0.394,0.367,0.334,0.195,0.167,north,6.7,Yes
2017/04/08,08:40,0.381,0.232,0.396,0.364,0.331,0.195,0.166,north,7.0,Yes
2017/04/08,08:50,0.382,0.233,0.396,0.367,0.330,0.195,0.165,north,7.0,Yes
2017/04/08,09:00,0.382,0.232,0.394,0.364,0.331,0.194,0.166,north,7.4,Yes
2017/04/08,09:10,0.382,0.230,0.396,0.364,0.329,0.193,0.164,north,6.6,No
2017/04/08,09:20,0.382,0.231,0.393,0.365,0.329,0.193,0.164,north,6.3,No
2017/04/08,09:30,0.381,0.230,0.394,0.363,0.331,0.194,0.163,north-northwest,6.1,Yes
2017/04/08,09:40,0.380,0.229,0.396,0.365,0.329,0.193,0.163,north,6.1,Yes
2017/04/08,09:50,0.381,0.232,0.392,0.363,0.332,0.191,0.163,north,5.8,Yes
2017/04/08,10:00,0.380,0.230,0.394,0.363,0.331,0.193,0.164,north,6.4,No
2017/04/08,10:10,0.381,0.231,0.395,0.366,0.330,0.192,0.163,north,6.2,No
2017/04/08,10:20,0.380,0.231,0.392,0.364,0.330,0.191,0.162,north,5.9,Yes
2017/04/08,10:30,0.380,0.231,0.394,0.363,0.329,0.193,0.163,north-northwest,6.4,Yes
2017/04/08,10:40,0.382,0.230,0.395,0.362,0.330,0.192,0.163,north,6.3,Yes
2017/04/08,10:50,0.380,0.230,0.392,0.363,0.330,0.192,0.162,north,6.8,Yes
2017/04/08,11:00,0.381,0.230,0.394,0.363,0.329,0.192,0.164,north,7.6,No
2017/04/08,11:10,0.381,0.231,0.394,0.364,0.330,0.192,0.163,north,6.3,No
2017/04/08,11:20,0.379,0.229,0.394,0.365,0.328,0.192,0.162,north,5.5,No
2017/04/08,11:30,0.381,0.231,0.395,0.361,0.332,0.191,0.162,north,5.7,No
2017/04/08,11:40,0.378,0.230,0.394,0.364,0.327,0.192,0.162,north,6.1,No
2017/04/08,11:50,0.380,0.229,0.395,0.362,0.330,0.192,0.162,north,7.2,No
2017/04/08,12:00,0.381,0.230,0.392,0.364,0.329,0.191,0.162,north,7.5,No
2017/04/08,12:10,0.380,0.229,0.394,0.363,0.331,0.192,0.162,north-northeast,8.7,No
2017/04/08,12:20,0.381,0.230,0.393,0.363,0.329,0.192,0.162,north-northeast,8.8,No
2017/04/08,12:30,0.379,0.230,0.395,0.364,0.331,0.193,0.162,north-northeast,9.5,No
2017/04/08,12:40,0.381,0.230,0.392,0.363,0.328,0.191,0.162,north-northeast,9.1,No
2017/04/08,12:50,0.380,0.229,0.395,0.362,0.329,0.192,0.163,north,8.3,No
2017/04/08,13:00,0.381,0.229,0.392,0.362,0.329,0.191,0.162,north-northeast,9.3,No
2017/04/08,13:10,0.380,0.230,0.393,0.364,0.329,0.191,0.161,north-northeast,9.6,No
2017/04/08,13:20,0.381,0.231,0.393,0.363,0.329,0.191,0.163,north-northeast,8.6,No
2017/04/08,13:30,0.378,0.230,0.395,0.363,0.332,0.192,0.162,north-northeast,9.7,No
2017/04/08,13:40,0.382,0.229,0.393,0.364,0.330,0.192,0.162,north-northeast,8.9,No
2017/04/08,13:50,0.380,0.230,0.395,0.364,0.331,0.191,0.163,north-northeast,7.5,No
2017/04/08,14:00,0.380,0.231,0.394,0.365,0.328,0.191,0.162,north-northeast,7.1,No
2017/04/08,14:10,0.382,0.230,0.393,0.363,0.331,0.191,0.162,north-northeast,6.2,No
2017/04/08,14:20,0.380,0.230,0.395,0.365,0.329,0.193,0.163,north-northeast,4.2,No
2017/04/08,14:30,0.381,0.230,0.395,0.365,0.330,0.191,0.163,northeast,4.0,No
2017/04/08,14:40,0.380,0.231,0.396,0.366,0.330,0.192,0.162,northeast,3.6,No
2017/04/08,14:50,0.383,0.230,0.395,0.365,0.330,0.192,0.162,east-northeast,2.5,No
2017/04/08,15:00,0.379,0.230,0.395,0.366,0.331,0.192,0.163,east-northeast,2.3,No
2017/04/08,15:10,0.383,0.230,0.395,0.366,0.332,0.192,0.162,east-northeast,2.4,No
2017/04/08,15:20,0.380,0.229,0.395,0.364,0.331,0.192,0.162,east-northeast,2.8,No
2017/04/08,15:30,0.383,0.230,0.394,0.365,0.330,0.192,0.164,east,1.9,No
2017/04/08,15:40,0.381,0.230,0.395,0.365,0.332,0.192,0.163,east,2.8,No
2017/04/08,15:50,0.381,0.230,0.392,0.366,0.330,0.191,0.163,east-southeast,2.3,No
2017/04/08,16:00,0.381,0.231,0.396,0.364,0.331,0.191,0.163,east-southeast,2.6,No
2017/04/08,16:10,0.381,0.231,0.393,0.365,0.329,0.192,0.163,southeast,3.0,No
2017/04/08,16:20,0.381,0.229,0.394,0.367,0.332,0.192,0.163,southeast,3.4,No
2017/04/08,16:30,0.381,0.231,0.395,0.364,0.330,0.192,0.163,southeast,2.1,No
2017/04/08,16:40,0.382,0.229,0.394,0.367,0.333,0.193,0.163,south-southeast,3.3,No
2017/04/08,16:50,0.381,0.229,0.395,0.366,0.329,0.192,0.163,south-southeast,3.3,No
2017/04/08,17:00,0.382,0.230,0.394,0.366,0.330,0.191,0.163,south-southeast,4.0,No
2017/04/08,17:10,0.381,0.231,0.395,0.367,0.332,0.192,0.162,south,3.6,No
2017/04/08,17:20,0.381,0.230,0.395,0.366,0.329,0.192,0.163,south,3.9,No
2017/04/08,17:30,0.382,0.232,0.395,0.367,0.334,0.192,0.162,south,3.7,No
2017/04/08,17:40,0.380,0.230,0.396,0.365,0.330,0.193,0.163,south,4.8,No
2017/04/08,17:50,0.381,0.231,0.394,0.365,0.331,0.192,0.163,south,4.5,No
2017/04/08,18:00,0.381,0.231,0.395,0.368,0.333,0.192,0.164,south,4.8,No
2017/04/08,18:10,0.381,0.230,0.395,0.364,0.331,0.193,0.163,south,4.8,No
2017/04/08,18:20,0.381,0.230,0.396,0.367,0.330,0.192,0.164,south,5.0,No
2017/04/08,18:30,0.381,0.232,0.396,0.367,0.332,0.192,0.163,south,3.4,No
2017/04/08,18:40,0.381,0.230,0.394,0.365,0.330,0.192,0.164,south,2.6,No
2017/04/08,18:50,0.381,0.231,0.393,0.367,0.332,0.191,0.163,south-southeast,1.7,No
2017/04/08,19:00,0.381,0.231,0.397,0.365,0.330,0.193,0.163,south,1.0,No
2017/04/08,19:10,0.382,0.230,0.394,0.366,0.330,0.192,0.163,west,0.6,No
2017/04/08,19:20,0.381,0.230,0.395,0.367,0.332,0.193,0.163,-,CALM,No
2017/04/08,19:30,0.382,0.231,0.396,0.364,0.330,0.192,0.163,-,CALM,No
2017/04/08,19:40,0.379,0.230,0.395,0.365,0.331,0.192,0.163,north-northwest,0.8,No
2017/04/08,19:50,0.379,0.230,0.397,0.365,0.332,0.192,0.164,north,1.1,No
2017/04/08,20:00,0.382,0.231,0.395,0.365,0.332,0.193,0.163,north-northeast,0.6,No
2017/04/08,20:10,0.380,0.231,0.394,0.367,0.330,0.192,0.162,-,CALM,No
2017/04/08,20:20,0.382,0.231,0.397,0.363,0.329,0.192,0.164,north-northwest,0.5,No
2017/04/08,20:30,0.381,0.232,0.394,0.368,0.333,0.192,0.163,north,1.9,No
2017/04/08,20:40,0.379,0.230,0.394,0.367,0.329,0.192,0.163,north,0.8,No
2017/04/08,20:50,0.382,0.230,0.396,0.365,0.331,0.193,0.163,-,CALM,No
2017/04/08,21:00,0.380,0.231,0.395,0.368,0.331,0.193,0.163,-,CALM,No
2017/04/08,21:10,0.382,0.232,0.395,0.365,0.330,0.192,0.163,south-southeast,0.7,No
2017/04/08,21:20,0.380,0.230,0.394,0.366,0.332,0.192,0.164,-,CALM,No
2017/04/08,21:30,0.381,0.231,0.395,0.367,0.331,0.191,0.164,north,1.8,No
2017/04/08,21:40,0.382,0.230,0.396,0.364,0.331,0.192,0.163,north,1.8,Yes
2017/04/08,21:50,0.381,0.232,0.394,0.366,0.333,0.192,0.163,north,1.0,Yes
2017/04/08,22:00,0.382,0.231,0.396,0.366,0.332,0.194,0.163,north-northwest,1.1,No
2017/04/08,22:10,0.380,0.230,0.395,0.366,0.333,0.192,0.164,north-northwest,1.8,No
2017/04/08,22:20,0.381,0.231,0.393,0.366,0.331,0.192,0.164,west-northwest,1.0,Yes
2017/04/08,22:30,0.383,0.231,0.396,0.366,0.330,0.193,0.163,west-southwest,0.5,Yes
2017/04/08,22:40,0.381,0.230,0.396,0.368,0.333,0.193,0.163,southwest,1.0,No
2017/04/08,22:50,0.383,0.231,0.396,0.366,0.331,0.193,0.163,southwest,1.4,Yes
2017/04/08,23:00,0.382,0.233,0.396,0.367,0.333,0.193,0.164,west-northwest,1.1,Yes
2017/04/08,23:10,0.383,0.231,0.394,0.368,0.331,0.194,0.164,northwest,1.2,Yes
2017/04/08,23:20,0.380,0.230,0.398,0.365,0.333,0.193,0.163,northwest,1.4,No
2017/04/08,23:30,0.381,0.231,0.396,0.368,0.332,0.193,0.165,west-northwest,1.7,No
2017/04/08,23:40,0.382,0.232,0.396,0.366,0.331,0.194,0.164,northwest,1.7,No
2017/04/08,23:50,0.381,0.232,0.397,0.367,0.333,0.193,0.164,west-northwest,1.0,No
